Home > Weather > Germering > Past weeks

Flag for Germany Past Weather in Germering, Bavaria, Germany — Yesterday and Last 2 Weeks

Now
63 °F

Passing clouds.


Feels Like: 63 °F
Forecast: 59 / 82 °F
Wind: 5 mph from Southwest

Location: Landsberg

Current Time: Jul 29, 2016 at 6:10:49 AM

Latest Report: Jul 29, 2016 at 5:20 AM


Visibility: N/A

Pressure: 30.07 "Hg (28.22 "Hg at 538m altitude)

Humidity: 77%

Dew Point: 55 °F

Location of GermeringLocation

Past Weather in Germering — Graph

°F

Germering Temperature Yesterday

Maximum temperature yesterday: 75 °F (at 3:20 PM)
Minimum temperature yesterday: 59 °F (at 2:20 AM)
Average temperature yesterday: 66 °F

High & Low Weather Summary for the Past Weeks

 TemperatureHumidityPressure
High84 °F (Jul 20, 4:20 PM)100% (Jul 22, 2:20 AM)30.36 "Hg (Jul 22, 2:20 AM)
Low46 °F (Jul 16, 2:20 AM)33% (Jul 20, 4:20 PM)29.98 "Hg (Jul 21, 4:20 AM)
Average66 °F73%30.14 "Hg
* Reported Jul 14 4:20 AM — Jul 29 4:20 AM, Germering, Weather by CustomWeather, © 2016

Note: Actual official high and low records may vary slightly from our data, if they occured in-between our weather recording intervals... More about our weather records

Advertising

Germering Weather History for the Previous 24 Hours

Scroll right to see more
 ConditionsComfort  
Time TempWeatherWind HumidityBarometerVisibility
4:20 AM
Fri, Jul 29
61 °FPassing clouds.6 mph83%30.07 "HgN/A
3:20 AM63 °FPassing clouds.7 mph77%30.07 "HgN/A
2:20 AM63 °FPassing clouds.8 mph83%30.07 "HgN/A
1:20 AM61 °FPartly cloudy.8 mph88%30.07 "HgN/A
12:20 AM61 °FPassing clouds.7 mph88%30.07 "HgN/A
11:20 PM
Thu, Jul 28
63 °FPassing clouds.7 mph83%30.07 "HgN/A
10:20 PM64 °FPassing clouds.3 mph78%30.07 "HgN/A
9:20 PM66 °FPartly sunny.2 mph73%30.07 "HgN/A
8:20 PM68 °FPartly sunny.3 mph69%30.07 "HgN/A
7:20 PM72 °FBroken clouds.7 mph61%30.07 "HgN/A
6:20 PM73 °FBroken clouds.10 mph61%30.04 "HgN/A
5:20 PM75 °FScattered clouds.10 mph47%30.07 "HgN/A
4:20 PM75 °FBroken clouds.8 mph47%30.07 "HgN/A
3:20 PM75 °FBroken clouds.8 mph50%30.07 "HgN/A
2:20 PM73 °FScattered showers. Broken clouds.6 mph47%30.07 "HgN/A
1:20 PM73 °FBroken clouds.3 mph53%30.09 "HgN/A
12:20 PM72 °FBroken clouds.2 mph61%30.09 "HgN/A
11:20 AM70 °FBroken clouds.2 mph60%30.12 "HgN/A
10:20 AM68 °FScattered clouds.2 mph69%30.12 "HgN/A
9:20 AM64 °FPartly sunny.1 mph83%30.12 "HgN/A
8:20 AM61 °FPartly sunny.2 mph88%30.12 "HgN/A
7:20 AM61 °FPartly sunny.2 mph88%30.09 "HgN/A
6:20 AM59 °FPassing clouds.2 mph94%30.09 "HgN/A
Weather by CustomWeather, © 2016

See weather overviewHow to use our weather pages